Location: Newark
(6.1167°N, 1.2167°E)
Time: 12:46:36
(UTC+00:00)

Hubble Space Telescope - Pass Details

Date: 26 October 2019
Orbit: 536 x 540 km, 28.5° (Epoch: 17 November)

Event Time Altitude Azimuth Distance (km) Brightness Sun altitude
Exits shadow 03:35:10 16° 58° (ENE) 1,458 3.4 -31.5°
Drops below altitude 10° 03:36:00 10° 58° (ENE) 1,775 3.9 -31.3°
Sets 03:38:15 0° 59° (ENE) 2,664 5.0 -30.8°
